Content
SEND FEEDBACK

Daily
Averages
Monthly
Summary
United States of America

COLTON, NEW YORK


Home > North America > United States > New York
Elevation: 536 meters     Latitude: 44 07N     Longitude: 074 40W

WEATHER
 
SELECT A DAY
Number of Records: 224,604;   Date Range: 1/1/95 - 7/7/14
 
SHARE

PRINT THIS DATA

[ ← Previous Day ]
WEATHER ALMANAC - 31 JANUARY, 2013
[ Next Day → ]
[ °F ]   °C
Weather ElementAverageHighLow
Temperature-2.1 °C10 °C (1:51 am)-10 °C (10:51 pm)
Dewpoint-5.6 °C8.9 °C (2:51 am)-16.1 °C (8:51 pm)
Humidity77.6 %97 % (2:51 am)54 % (7:51 pm)
Barometer986.1 hPa999.3 hPa (11:51 pm)976.6 hPa (4:51 am)
Wind Speed29.1 km/h44.4 km/h (12:06 pm)
Wind Gust81.4 km/h (9:00 am)
Weather ElementAverage
Visibility7.1 km
Wind DirectionWSW (242.2 °)

Weather ElementTotal
Precipitation11.18 mm
Heating Degree Days18.3 (Base 18.3)
Averaged from 58 records on 31 January, 2013
WEATHER CONDITIONS BREAKOUT
WIND DIRECTION BREAKOUT
WEATHER BY HOUR - 31 JANUARY, 2013
[ °F ]   °C
Local TimeTemperatureDewpointHumidityBarometerVisibilityWind DirectionWind SpeedGust SpeedPrecipitationEventsConditions
1:51 AM10 °C8.3 °C89 %983.7 hPa12.9 kmSouth (180°)14.8 km/h1.02 mmRainLight Rain
2:51 AM9.4 °C8.9 °C97 %981.7 hPa8 kmSouth (180°)11.1 km/h1.78 mmRainRain
3:51 AM9.4 °C8.9 °C97 %978.7 hPa12.9 kmSouth (170°)9.3 km/h2.54 mmRainLight Rain
4:51 AM9.4 °C8.3 °C93 %976.6 hPa11.3 kmSouth (190°)22.2 km/h33.3 km/h1.78 mmRainLight Rain
5:26 AM7 °C6 °C93 %978.7 hPa12.9 kmWSW (240°)29.6 km/h57.5 km/h0.51 mmRainLight Rain
5:43 AM6 °C4 °C87 %978.7 hPa14.5 kmWSW (240°)27.8 km/h38.9 km/h1.02 mmRainLight Rain
5:51 AM4.4 °C2.8 °C89 %979.3 hPa16.1 kmWSW (240°)29.6 km/h57.5 km/h1.02 mmRainLight Rain
6:03 AM4 °C3 °C93 %978 hPa16.1 kmWSW (240°)16.7 km/h31.5 km/h0 mmRainLight Rain
6:51 AM2.2 °C1.1 °C93 %980 hPa12.9 kmSW (230°)27.8 km/h40.7 km/h0.76 mmRainLight Rain
7:25 AM1 °C-1 °C87 %981 hPa4 kmSW (230°)35.2 km/h53.8 km/h0 mmSnowLight Snow
7:34 AM1 °C-1 °C87 %980.7 hPa1.6 kmSW (230°)24.1 km/h46.3 km/h0 mmSnowLight Snow
7:41 AM1 °C-1 °C87 %981 hPa1.9 kmWSW (240°)22.2 km/h38.9 km/h0 mmSnowLight Snow
7:51 AM0.6 °C-0.6 °C92 %981.4 hPa1.6 kmWSW (240°)29.6 km/h48.1 km/h0 mmSnowLight Snow
7:59 AM0 °C-1 °C93 %981 hPa0.8 kmWSW (240°)22.2 km/h55.5 km/h0 mmFog-SnowSnow
8:13 AM0 °C-1 °C93 %981.4 hPa2.9 kmSW (230°)27.8 km/h46.3 km/h0 mmSnowLight Snow
8:20 AM1 °C-1 °C87 %981.4 hPa3.2 kmWSW (240°)22.2 km/h46.3 km/h0 mmSnowLight Snow
8:25 AM0 °C-1 °C93 %981.4 hPa1.6 kmWSW (240°)27.8 km/h38.9 km/h0 mmSnowLight Snow
8:42 AM0 °C-2 °C87 %981.7 hPa1.9 kmWest (260°)38.9 km/h72.3 km/h0.25 mmSnowLight Snow
8:44 AM-1 °C-2 °C93 %981.7 hPa4.8 kmWSW (250°)33.3 km/h72.3 km/h0.25 mmOvercast
8:51 AM-0.6 °C-2.2 °C89 %982.4 hPa6.4 kmWest (260°)35.2 km/h66.6 km/h0.25 mmOvercast
9:00 AM-1 °C-3 °C86 %982.1 hPa8 kmWSW (250°)37 km/h81.4 km/h0 mmOvercast
9:51 AM-1.7 °C-4.4 °C82 %984.1 hPa14.5 kmWSW (240°)37 km/h53.8 km/h0 mmSnowLight Snow
10:22 AM-2 °C-7 °C69 %984.4 hPa16.1 kmWSW (240°)33.3 km/h72.3 km/h0 mmOvercast
10:51 AM-2.8 °C-6.7 °C75 %985.8 hPa16.1 kmWSW (240°)27.8 km/h57.5 km/h0 mmOvercast
11:21 AM-3 °C-7 °C74 %984.8 hPa14.5 kmWSW (250°)31.5 km/h74 km/hOvercast
11:48 AM-3 °C-7 °C74 %985.1 hPa8 kmWest (260°)35.2 km/h70.3 km/h0 mmSnowLight Snow
11:51 AM-3.3 °C-7.2 °C75 %986.1 hPa8 kmWSW (250°)42.6 km/h70.3 km/h0 mmSnowLight Snow
12:06 PM-3 °C-8 °C69 %985.4 hPa2.9 kmWSW (250°)44.4 km/h62.9 km/h0 mmSnowLight Snow
12:14 PM-4 °C-7 °C80 %985.8 hPa0.3 kmWSW (240°)27.8 km/h64.9 km/h0 mmSnowHeavy Snow
12:26 PM-4 °C-7 °C80 %985.8 hPa1.6 kmSW (230°)37 km/h62.9 km/h0 mmSnowLight Snow
12:35 PM-3 °C-7 °C74 %985.8 hPa3.2 kmWSW (250°)31.5 km/h62.9 km/h0 mmSnowLight Snow
12:47 PM-4 °C-7 °C80 %986.1 hPa1.3 kmWest (270°)20.4 km/h53.8 km/h0 mmSnowLight Snow
12:51 PM-4.4 °C-6.1 °C88 %987.1 hPa0.3 kmWSW (250°)25.9 km/h42.6 km/h0 mmFog-SnowHeavy Snow
1:11 PM-4 °C-6 °C86 %986.5 hPa0.3 kmWest (260°)20.4 km/h33.3 km/h0 mmFog-SnowHeavy Snow
1:29 PM-4 °C-7 °C80 %986.5 hPa0.8 kmWest (260°)27.8 km/h53.8 km/h0 mmFog-SnowSnow
1:36 PM-5 °C-7 °C86 %986.5 hPa0.3 kmWest (260°)44.4 km/h72.3 km/h0 mmFog-SnowSnow
1:41 PM-5 °C-8 °C80 %986.5 hPa0.8 kmWSW (250°)33.3 km/h72.3 km/h0 mmSnowSnow
1:47 PM-4 °C-8 °C74 %986.8 hPa1.9 kmWSW (250°)33.3 km/h62.9 km/h0 mmSnowLight Snow
1:51 PM-4.4 °C-8.3 °C75 %987.8 hPa4 kmWSW (240°)25.9 km/h62.9 km/h0 mmOvercast
2:15 PM-4 °C-9 °C69 %986.8 hPa1.9 kmWSW (240°)37 km/h68.6 km/h0 mmSnowLight Snow
2:24 PM-4 °C-9 °C69 %987.1 hPa2.9 kmWSW (250°)37 km/h68.6 km/h0 mmOvercast
2:36 PM-4 °C-10 °C64 %987.5 hPa4 kmWSW (250°)35.2 km/h62.9 km/h0 mmOvercast
2:51 PM-4.4 °C-10 °C65 %988.8 hPa3.2 kmWSW (250°)31.5 km/h70.3 km/h0 mmHaze
3:10 PM-5 °C-11 °C63 %988.5 hPa2.4 kmWSW (250°)37 km/h64.9 km/h0 mmOvercast
3:18 PM-5 °C-11 °C63 %988.5 hPa4.8 kmWSW (240°)29.6 km/h68.6 km/h0 mmHaze
3:33 PM-5 °C-12 °C59 %989.2 hPa4 kmWSW (240°)42.6 km/h72.3 km/h0 mmHaze
3:40 PM-5 °C-12 °C59 %989.2 hPa8 kmWSW (250°)24.1 km/h72.3 km/h0 mmHaze
3:51 PM-5 °C-11.7 °C60 %990.5 hPa14.5 kmWSW (250°)29.6 km/h62.9 km/h0 mmOvercast
4:16 PM-6 °C-11 °C68 %989.8 hPa2.9 kmWSW (250°)33.3 km/h55.5 km/h0 mmSnowLight Snow
4:26 PM-6 °C-12 °C63 %990.2 hPa4.8 kmWSW (250°)31.5 km/h66.6 km/h0 mmSnowLight Snow
4:51 PM-5.6 °C-12.2 °C60 %991.5 hPa12.9 kmWSW (250°)27.8 km/h46.3 km/h0 mmSnowLight Snow
5:51 PM-6.7 °C-13.3 °C60 %993.6 hPa16.1 kmWSW (240°)31.5 km/h51.8 km/h0 mmOvercast
6:51 PM-7.2 °C-13.9 °C59 %995.3 hPa16.1 kmWest (260°)24.1 km/h59.2 km/hOvercast
7:51 PM-7.8 °C-15.6 °C54 %996.3 hPa16.1 kmWest (260°)27.8 km/h66.6 km/hOvercast
8:51 PM-8.3 °C-16.1 °C54 %997.3 hPa16.1 kmWest (260°)25.9 km/h55.5 km/hOvercast
9:51 PM-8.9 °C-15 °C62 %998 hPa12.9 kmWest (260°)16.7 km/h42.6 km/hOvercast
10:51 PM-10 °C-14.4 °C71 %998.6 hPa11.3 kmWSW (250°)16.7 km/h25.9 km/hOvercast
11:51 PM-10 °C-13.9 °C74 %999.3 hPa8 kmWSW (240°)20.4 km/h33.3 km/hHaze
Hourly data recorded from KSLK, located 0 kilometers away from Colton, New York







STORIES FROM OUR PARTNERS